Total_Precipitation_Accumulation
0.23 0.22 0.21 0.27 0.24 0.13 0.06 0.04 0.03 0.06 0.05 0.03 0.04 0.06 0.06 0.07 0.09 0.19 0.21 0.20 0.23 0.28 0.42 0.89 1.33 1.43 1.39 1.33 1.23 1.13 1.04 1.10 1.22 1.35 1.35 1.26 1.15 1.13 1.18 1.15 1.17 1.27 1.41 1.49 1.49 1.42 1.19 0.88 0.69
0.25 0.31 0.38 0.42 0.25 0.12 0.04 0.02 0.03 0.05 0.05 0.04 0.05 0.08 0.13 0.13 0.09 0.14 0.20 0.21 0.25 0.32 0.41 0.77 1.34 1.44 1.40 1.34 1.29 1.24 1.15 1.13 1.22 1.35 1.30 1.27 1.24 1.24 1.17 1.19 1.23 1.24 1.25 1.19 1.19 1.18 1.04 0.79 0.62
0.35 0.48 0.58 0.43 0.21 0.09 0.05 0.02 0.03 0.04 0.06 0.06 0.08 0.12 0.26 0.27 0.16 0.17 0.22 0.25 0.30 0.41 0.51 0.87 1.37 1.49 1.44 1.40 1.34 1.34 1.34 1.27 1.25 1.25 1.28 1.26 1.24 1.26 1.24 1.21 1.21 1.17 1.16 1.08 1.01 0.97 0.86 0.72 0.62
0.55 0.79 0.68 0.40 0.15 0.06 0.05 0.03 0.02 0.06 0.08 0.09 0.12 0.20 0.34 0.31 0.24 0.24 0.27 0.33 0.39 0.52 0.73 1.08 1.47 1.59 1.57 1.47 1.40 1.42 1.48 1.49 1.41 1.35 1.33 1.36 1.35 1.36 1.29 1.15 1.05 1.07 1.09 1.08 0.97 0.86 0.80 0.67 0.61
0.85 0.89 0.64 0.34 0.13 0.05 0.05 0.04 0.04 0.06 0.09 0.10 0.15 0.29 0.44 0.40 0.39 0.46 0.45 0.45 0.51 0.64 0.92 1.28 1.65 1.74 1.67 1.57 1.49 1.55 1.62 1.63 1.59 1.54 1.53 1.47 1.49 1.45 1.29 1.11 1.00 1.05 1.07 1.07 1.02 0.88 0.80 0.74 0.68
1.11 0.92 0.65 0.35 0.12 0.04 0.04 0.05 0.06 0.08 0.10 0.12 0.18 0.37 0.53 0.53 0.67 0.79 0.81 0.75 0.79 0.95 1.25 1.60 1.90 1.88 1.72 1.57 1.47 1.46 1.61 1.65 1.58 1.54 1.62 1.58 1.51 1.44 1.30 1.13 1.06 1.12 1.19 1.20 1.09 0.97 0.85 0.76 0.72
1.14 0.92 0.57 0.30 0.14 0.06 0.04 0.04 0.06 0.10 0.14 0.14 0.19 0.46 0.59 0.71 0.96 1.17 1.27 1.28 1.36 1.54 1.75 1.86 1.96 1.91 1.93 1.72 1.50 1.43 1.50 1.57 1.60 1.58 1.58 1.56 1.53 1.51 1.38 1.26 1.22 1.21 1.27 1.24 1.15 1.03 0.94 0.84 0.73
1.26 1.23 0.68 0.32 0.18 0.10 0.06 0.06 0.06 0.07 0.13 0.15 0.21 0.45 0.60 0.76 1.13 1.58 1.86 1.92 1.99 2.09 2.24 2.27 2.22 2.10 1.99 1.87 1.63 1.46 1.48 1.48 1.55 1.57 1.48 1.39 1.42 1.45 1.33 1.18 1.20 1.21 1.21 1.15 1.07 1.03 1.01 0.90 0.76
1.57 1.64 0.86 0.34 0.21 0.15 0.12 0.13 0.13 0.10 0.13 0.22 0.27 0.39 0.56 0.83 1.35 1.92 2.34 2.51 2.49 2.53 2.62 2.70 2.66 2.47 2.28 2.00 1.69 1.60 1.60 1.56 1.52 1.50 1.37 1.38 1.41 1.36 1.22 1.12 1.04 1.03 1.07 1.05 1.03 1.01 0.93 0.84 0.75
1.89 1.64 0.73 0.28 0.23 0.22 0.22 0.26 0.29 0.28 0.26 0.31 0.39 0.42 0.67 1.03 1.51 2.03 2.37 2.62 2.63 2.68 2.80 2.84 2.89 2.87 2.72 2.38 2.04 1.90 1.74 1.67 1.51 1.40 1.39 1.34 1.36 1.38 1.21 1.20 1.06 0.95 0.93 0.95 1.00 1.00 0.93 0.80 0.70
1.60 1.14 0.59 0.35 0.34 0.35 0.38 0.37 0.38 0.48 0.41 0.31 0.35 0.50 0.77 1.16 1.55 2.02 2.40 2.60 2.67 2.82 2.98 3.04 3.11 3.04 2.92 2.62 2.25 2.03 1.94 1.87 1.75 1.60 1.54 1.43 1.44 1.44 1.41 1.39 1.31 1.13 0.96 0.95 0.92 0.89 0.76 0.70 0.66
1.15 0.75 0.67 0.59 0.49 0.49 0.48 0.49 0.48 0.47 0.39 0.32 0.38 0.57 0.87 1.14 1.46 1.78 2.28 2.55 2.76 2.94 3.02 3.16 3.29 3.19 3.02 2.80 2.55 2.22 2.09 2.03 1.96 1.84 1.77 1.69 1.57 1.51 1.42 1.31 1.29 1.27 1.07 1.03 0.97 0.82 0.69 0.67 0.63
0.96 0.73 0.73 0.76 0.74 0.66 0.60 0.59 0.55 0.50 0.42 0.43 0.55 0.78 0.96 1.16 1.46 1.80 2.10 2.47 2.70 2.87 3.10 3.31 3.41 3.32 3.23 3.11 2.79 2.44 2.26 2.13 2.08 2.12 1.98 1.83 1.72 1.64 1.60 1.46 1.36 1.28 1.21 1.18 1.13 1.00 0.89 0.80 0.75
0.85 0.80 0.82 0.85 0.87 0.82 0.80 0.70 0.66 0.57 0.57 0.63 0.71 0.84 0.99 1.19 1.44 1.69 1.94 2.24 2.45 2.56 2.96 3.31 3.44 3.37 3.26 3.25 3.11 2.72 2.34 2.28 2.24 2.18 2.16 2.08 1.95 1.82 1.74 1.66 1.59 1.46 1.36 1.32 1.27 1.13 1.14 1.11 1.01
0.92 1.09 1.10 1.05 1.00 0.99 1.03 0.95 0.63 0.53 0.68 0.78 0.81 0.86 0.99 1.19 1.38 1.51 1.65 1.92 2.15 2.27 2.65 3.08 3.42 3.53 3.34 3.29 3.35 3.23 2.83 2.49 2.25 2.16 2.17 2.19 2.10 1.97 1.88 1.86 1.74 1.55 1.50 1.52 1.51 1.41 1.36 1.29 1.18
1.18 1.38 1.35 1.10 1.07 1.10 1.29 1.14 0.60 0.54 0.65 0.73 0.76 0.83 1.02 1.23 1.36 1.48 1.57 1.78 1.98 2.11 2.39 2.77 3.03 3.40 3.43 3.30 3.30 3.33 3.17 2.89 2.59 2.32 2.21 2.17 2.12 2.06 2.01 1.96 1.94 1.78 1.73 1.77 1.70 1.61 1.53 1.40 1.28
1.30 1.32 1.15 0.98 0.95 1.12 1.23 1.04 0.68 0.58 0.63 0.65 0.67 0.74 0.94 1.24 1.37 1.46 1.62 1.80 1.90 1.99 2.27 2.70 2.76 3.00 3.39 3.61 3.46 3.28 3.22 3.03 2.83 2.57 2.29 2.15 2.21 2.26 2.17 1.98 1.94 1.96 1.87 1.83 1.85 1.78 1.66 1.55 1.46
0.92 0.91 0.87 0.88 0.83 0.96 1.01 0.81 0.71 0.60 0.65 0.64 0.64 0.74 0.89 1.17 1.37 1.48 1.67 1.90 2.03 2.05 2.24 2.61 2.73 2.90 3.25 3.64 3.70 3.54 3.37 3.14 2.98 2.71 2.39 2.23 2.17 2.26 2.22 2.07 2.05 2.10 2.02 1.85 1.79 1.73 1.70 1.62 1.62
0.55 0.65 0.74 0.74 0.74 0.82 0.86 0.74 0.71 0.64 0.63 0.68 0.65 0.70 0.85 1.07 1.30 1.46 1.67 1.95 2.17 2.21 2.25 2.44 2.67 2.84 3.06 3.30 3.36 3.24 3.20 3.19 3.11 2.91 2.72 2.56 2.42 2.35 2.35 2.24 2.24 2.24 2.13 2.01 1.96 1.97 1.87 1.75 1.74
0.56 0.66 0.70 0.69 0.68 0.80 0.85 0.78 0.72 0.72 0.68 0.68 0.65 0.64 0.79 1.00 1.18 1.36 1.57 1.80 1.98 2.13 2.18 2.38 2.58 2.71 2.79 3.00 3.26 3.23 3.25 3.31 3.38 3.30 3.08 2.87 2.73 2.64 2.54 2.50 2.53 2.49 2.35 2.23 2.15 2.13 2.08 1.93 1.88
0.52 0.55 0.60 0.66 0.70 0.85 0.95 0.98 0.76 0.72 0.68 0.61 0.60 0.63 0.77 0.97 1.09 1.23 1.43 1.61 1.77 2.00 2.19 2.29 2.45 2.63 2.72 3.01 3.52 3.57 3.55 3.49 3.48 3.46 3.36 3.17 2.97 2.85 2.73 2.67 2.72 2.72 2.61 2.47 2.32 2.22 2.14 2.15 2.09
0.56 0.40 0.51 0.62 0.88 1.08 1.04 1.32 0.85 0.77 0.73 0.63 0.60 0.63 0.79 0.92 0.99 1.09 1.33 1.48 1.59 1.77 2.03 2.28 2.43 2.64 2.90 3.19 3.48 3.58 3.41 3.32 3.26 3.22 3.29 3.33 3.11 2.99 2.91 2.87 2.85 2.87 2.86 2.70 2.55 2.43 2.33 2.30 2.25
0.53 0.41 0.53 0.65 0.85 1.05 0.86 1.06 0.91 0.72 0.76 0.75 0.71 0.71 0.84 0.94 1.01 1.07 1.28 1.41 1.48 1.60 1.79 2.01 2.30 2.48 2.82 3.13 3.34 3.56 3.38 3.11 3.18 3.22 3.17 3.24 3.20 3.02 2.97 2.91 2.82 2.79 2.82 2.87 2.82 2.60 2.48 2.33 2.16
0.55 0.58 0.72 0.86 1.13 1.28 0.75 0.83 0.91 0.80 0.80 0.78 0.78 0.84 0.94 1.01 1.04 1.13 1.27 1.28 1.33 1.45 1.59 1.71 1.94 2.10 2.29 2.60 2.96 3.25 3.31 3.19 3.13 3.08 3.11 3.09 3.07 3.02 2.96 2.92 2.82 2.66 2.60 2.64 2.75 2.77 2.61 2.44 2.22
0.71 1.07 1.47 1.63 1.55 1.06 0.57 0.66 0.90 0.80 0.73 0.74 0.81 0.86 0.92 0.99 1.01 1.13 1.21 1.14 1.13 1.27 1.45 1.53 1.63 1.74 1.90 2.12 2.43 2.75 3.00 3.08 3.08 3.04 3.02 3.06 2.96 2.85 2.80 2.79 2.79 2.72 2.60 2.61 2.65 2.71 2.64 2.52 2.36
0.67 0.88 1.20 1.21 0.88 0.61 0.42 0.62 0.84 0.79 0.77 0.74 0.80 0.81 0.84 0.91 0.97 1.09 1.24 1.18 1.11 1.17 1.29 1.34 1.39 1.54 1.66 1.78 2.00 2.20 2.42 2.60 2.62 2.73 2.77 2.81 2.83 2.79 2.73 2.63 2.58 2.60 2.57 2.54 2.56 2.57 2.58 2.55 2.44
0.65 0.62 0.61 0.99 0.73 0.55 0.54 0.64 0.77 0.74 0.74 0.77 0.81 0.78 0.78 0.81 0.93 1.03 1.10 1.08 1.03 1.06 1.12 1.21 1.26 1.35 1.40 1.48 1.64 1.70 1.84 2.04 2.17 2.23 2.31 2.35 2.43 2.55 2.63 2.62 2.46 2.39 2.40 2.39 2.40 2.37 2.29 2.34 2.33
0.45 0.46 0.63 1.15 1.10 0.73 0.53 0.55 0.80 0.77 0.76 0.74 0.72 0.71 0.74 0.80 0.85 0.88 0.88 0.86 0.87 0.94 1.05 1.11 1.17 1.17 1.16 1.22 1.36 1.42 1.46 1.58 1.73 1.84 1.88 1.91 1.99 2.12 2.24 2.37 2.38 2.31 2.31 2.29 2.25 2.18 2.07 2.04 2.01
0.38 0.53 0.70 0.91 0.88 0.80 0.58 0.61 0.66 0.68 0.70 0.70 0.66 0.66 0.70 0.72 0.69 0.69 0.70 0.71 0.75 0.79 0.86 0.92 0.99 1.04 1.03 1.02 1.10 1.20 1.27 1.35 1.49 1.62 1.66 1.74 1.76 1.80 1.93 2.05 2.20 2.22 2.21 2.21 2.15 2.05 1.99 1.92 1.83
0.27 0.41 0.64 1.05 0.86 0.68 0.63 0.59 0.51 0.52 0.53 0.55 0.55 0.56 0.56 0.57 0.56 0.58 0.62 0.64 0.68 0.70 0.71 0.82 0.90 0.97 0.96 0.90 0.94 1.02 1.11 1.18 1.27 1.36 1.44 1.53 1.56 1.60 1.69 1.72 1.80 1.92 1.98 2.05 2.06 1.97 1.88 1.82 1.73